This is the latest recevied weather packets stored in our database for station/object N8DMH-13. If no packets are shown the sender has not sent any weather packets the latest 10 day(s).
| Time | Temp. | Humidity | Pressure | Rain* | Wind** | Luminosity | Snow |
|---|---|---|---|---|---|---|---|
| 1777752195 | 10° C | 30% | 1016.6 hPa | 0 mm | - | - | - |
| 1777751865 | 10.56° C | 29% | 1016.6 hPa | 0 mm | - | - | - |
| 1777751565 | 10.56° C | 31% | 1016.8 hPa | 0 mm | - | - | - |
| 1777751265 | 10.56° C | 32% | 1016.8 hPa | 0 mm | - | - | - |
| 1777750935 | 10.56° C | 30% | 1017 hPa | 0 mm | - | - | - |
| 1777750635 | 10.56° C | 31% | 1017 hPa | 0 mm | - | - | - |
| 1777750305 | 10.56° C | 35% | 1017 hPa | 0 mm | - | - | - |
| 1777750005 | 10° C | 33% | 1017 hPa | 0 mm | - | - | - |
| 1777749704 | 10° C | 33% | 1016.9 hPa | 0 mm | - | - | - |
| 1777749375 | 10° C | 31% | 1016.9 hPa | 0 mm | - | - | - |
| 1777749075 | 10° C | 31% | 1017 hPa | 0 mm | - | - | - |
| 1777748774 | 10° C | 30% | 1017 hPa | 0 mm | - | - | - |
| 1777748444 | 10° C | 32% | 1017 hPa | 0 mm | - | - | - |
| 1777748114 | 10° C | 29% | 1017.2 hPa | 0 mm | - | - | - |
| 1777747815 | 10° C | 33% | 1017.2 hPa | 0 mm | - | - | - |
| 1777747484 | 10° C | 30% | 1017.2 hPa | 0 mm | - | - | - |
| 1777747154 | 10° C | 30% | 1017.3 hPa | 0 mm | - | - | - |
| 1777746853 | 10° C | 30% | 1017.3 hPa | 0 mm | - | - | - |
| 1777746553 | 10° C | 34% | 1017.3 hPa | 0 mm | - | - | - |
| 1777746223 | 10° C | 32% | 1017.3 hPa | 0 mm | - | - | - |
| 1777745923 | 10° C | 33% | 1017.3 hPa | 0 mm | - | - | - |
| 1777745623 | 10° C | 31% | 1017.3 hPa | 0 mm | - | - | - |
| 1777745293 | 9.44° C | 31% | 1017.3 hPa | 0 mm | - | - | - |
| 1777744993 | 10° C | 33% | 1017.4 hPa | 0 mm | - | - | - |
| 1777744693 | 9.44° C | 34% | 1017.5 hPa | 0 mm | - | - | - |
* Rain latest hour (hover to see other rain measurements)
** Current wind speed in m/s (hover to see current wind gust speed)